North Clarendon, VT

7:38 PM EST on February 24, 2017 (GMT -0500)
Rutland State

Weather History for KRUT - May, 2014

Change the Weather History Date:

Friday, May 9, 2014

  Actual Average Record
Temperature  
Mean Temperature 54 °F -  
Max Temperature 59 °F - 93 °F (1979)
Min Temperature 48 °F - 24 °F (1956)
Degree Days  
Heating Degree Days 11    
Month to date heating degree days 138  
Since 1 July heating degree days 7749  
Cooling Degree Days 0    
Month to date cooling degree days 0  
Year to date cooling degree days 0  
Growing Degree Days 2 (Base 50)    
Moisture  
Dew Point 43 °F    
Average Humidity 67    
Maximum Humidity 86    
Minimum Humidity 47    
Precipitation  
Precipitation 0.00 in - 0.83 in (1983)
Month to date precipitation 0.26  
Year to date precipitation 7.67  
Sea Level Pressure  
Sea Level Pressure 30.11 in    
Wind  
Wind Speed 13 mph (SE)    
Max Wind Speed 20 mph    
Max Gust Speed 28 mph    
Visibility 10 miles    
Events      
T = Trace of Precipitation, MM = Missing Value Source: NWS Daily Summary

Daily Weather History Graph

Daily Weather History Graph

Search for Another Location

Airport or City:

Trip Planner

Search our weather history database for the weather conditions in past years. The results will help you decide how hot, cold, wet, or windy it might be!

Date:

Astronomy

May. 09, 2014 Rise Set
Actual Time 5:33 AM EDT 8:03 PM EDT
Civil Twilight 5:01 AM EDT 8:35 PM EDT
Nautical Twilight 4:21 AM EDT 9:16 PM EDT
Astronomical Twilight 3:36 AM EDT 10:01 PM EDT
Moon 2:48 PM EDT (5/9) 2:44 AM EDT (5/9)
Length of Visible Light 15h 33m
Length of Day
14h 29m
Waxing Gibbous, 73% of the Moon is Illuminated
May 9
Waxing Gibbous
May 14
Full
May 21
Last Quarter
May 28
New
Jun 5
First Quarter

Hourly Weather History & Observations

Time (EDT) Temp. Dew Point Humidity Pressure Visibility Wind Dir Wind Speed Gust Speed Precip Events Conditions
12:15 AM 53.6 °F 37.4 °F 54% 30.15 in 10.0 mi SSE 3.5 mph - N/A   Overcast
12:35 AM 53.6 °F 35.6 °F 51% 30.15 in 10.0 mi West 3.5 mph - N/A   Overcast
12:55 AM 51.8 °F 39.2 °F 62% 30.15 in 10.0 mi Calm Calm - N/A   Overcast
1:15 AM 51.8 °F 39.2 °F 62% 30.15 in 10.0 mi Calm Calm - N/A   Overcast
1:35 AM 51.8 °F 39.2 °F 62% 30.16 in 10.0 mi Calm Calm - N/A   Overcast
1:55 AM 48.2 °F 42.8 °F 82% 30.16 in 10.0 mi NE 3.5 mph - N/A   Overcast
2:15 AM 48.2 °F 42.8 °F 82% 30.15 in 10.0 mi South 3.5 mph - N/A   Overcast
2:35 AM 51.8 °F 41.0 °F 67% 30.14 in 10.0 mi ESE 5.8 mph - N/A   Overcast
2:55 AM 51.8 °F 37.4 °F 58% 30.14 in 10.0 mi SW 3.5 mph - N/A   Overcast
3:15 AM 50.0 °F 42.8 °F 76% 30.14 in 10.0 mi East 6.9 mph - N/A   Overcast
3:35 AM 53.6 °F 35.6 °F 51% 30.13 in 10.0 mi SSE 5.8 mph - N/A   Overcast
3:55 AM 55.4 °F 35.6 °F 47% 30.12 in 10.0 mi South 5.8 mph - N/A   Overcast
4:15 AM 55.4 °F 35.6 °F 47% 30.14 in 10.0 mi SSW 10.4 mph - N/A   Overcast
4:35 AM 55.4 °F 35.6 °F 47% 30.15 in 10.0 mi SSE 11.5 mph 19.6 mph N/A   Overcast
5:15 AM 55.4 °F 35.6 °F 47% 30.17 in 10.0 mi South 10.4 mph - N/A   Overcast
5:35 AM 53.6 °F 37.4 °F 54% 30.16 in 10.0 mi SE 9.2 mph - N/A   Overcast
5:55 AM 53.6 °F 37.4 °F 54% 30.16 in 10.0 mi South 6.9 mph - N/A   Overcast
6:15 AM 53.6 °F 37.4 °F 54% 30.15 in 10.0 mi SE 12.7 mph - N/A   Overcast
6:35 AM 53.6 °F 37.4 °F 54% 30.14 in 10.0 mi South 11.5 mph 20.7 mph N/A   Overcast
6:55 AM 53.6 °F 37.4 °F 54% 30.16 in 10.0 mi South 11.5 mph - N/A   Overcast
7:15 AM 53.6 °F 39.2 °F 58% 30.17 in 10.0 mi SE 11.5 mph 19.6 mph N/A   Overcast
7:35 AM 53.6 °F 39.2 °F 58% 30.17 in 10.0 mi ESE 17.3 mph 24.2 mph N/A   Overcast
7:55 AM 53.6 °F 39.2 °F 58% 30.18 in 10.0 mi ESE 16.1 mph 21.9 mph N/A   Overcast
8:15 AM 53.6 °F 39.2 °F 58% 30.18 in 10.0 mi ESE 16.1 mph 23.0 mph N/A   Overcast
8:35 AM 53.6 °F 39.2 °F 58% 30.18 in 10.0 mi ESE 18.4 mph - N/A   Overcast
8:55 AM 53.6 °F 39.2 °F 58% 30.18 in 10.0 mi ESE 18.4 mph 27.6 mph N/A   Overcast
9:15 AM 51.8 °F 39.2 °F 62% 30.18 in 10.0 mi ESE 19.6 mph 23.0 mph N/A   Overcast
9:35 AM 51.8 °F 39.2 °F 62% 30.17 in 10.0 mi ESE 19.6 mph 25.3 mph N/A   Overcast
9:55 AM 51.8 °F 39.2 °F 62% 30.17 in 10.0 mi ESE 13.8 mph 19.6 mph N/A   Overcast
10:15 AM 53.6 °F 39.2 °F 58% 30.17 in 10.0 mi ESE 17.3 mph 23.0 mph N/A   Overcast
10:35 AM 53.6 °F 39.2 °F 58% 30.16 in 10.0 mi ESE 18.4 mph 25.3 mph N/A   Overcast
10:55 AM 53.6 °F 39.2 °F 58% 30.16 in 10.0 mi ESE 17.3 mph 20.7 mph N/A   Overcast
11:15 AM 55.4 °F 39.2 °F 54% 30.14 in 10.0 mi ESE 21.9 mph 29.9 mph N/A   Overcast
11:35 AM 55.4 °F 39.2 °F 54% 30.14 in 10.0 mi ESE 20.7 mph 27.6 mph N/A   Overcast
11:55 AM 55.4 °F 41.0 °F 58% 30.15 in 10.0 mi ESE 18.4 mph 27.6 mph N/A   Overcast
12:15 PM 57.2 °F 41.0 °F 55% 30.14 in 10.0 mi ESE 17.3 mph 21.9 mph N/A   Overcast
12:35 PM 57.2 °F 41.0 °F 55% 30.14 in 10.0 mi SE 19.6 mph - N/A   Overcast
12:55 PM 55.4 °F 42.8 °F 63% 30.14 in 10.0 mi ESE 19.6 mph 23.0 mph N/A   Overcast
1:15 PM 57.2 °F 42.8 °F 59% 30.13 in 10.0 mi ESE 18.4 mph 25.3 mph N/A   Overcast
1:35 PM 57.2 °F 42.8 °F 59% 30.12 in 10.0 mi SE 21.9 mph 26.5 mph N/A   Overcast
1:55 PM 57.2 °F 42.8 °F 59% 30.11 in 10.0 mi SE 19.6 mph 23.0 mph N/A   Overcast
2:15 PM 57.2 °F 42.8 °F 59% 30.11 in 10.0 mi ESE 16.1 mph 21.9 mph N/A   Overcast
2:35 PM 57.2 °F 44.6 °F 63% 30.10 in 10.0 mi SE 19.6 mph 25.3 mph N/A   Overcast
2:55 PM 57.2 °F 44.6 °F 63% 30.10 in 10.0 mi SE 15.0 mph 23.0 mph N/A   Overcast
3:15 PM 57.2 °F 44.6 °F 63% 30.09 in 10.0 mi SE 17.3 mph 20.7 mph N/A   Overcast
3:35 PM 57.2 °F 46.4 °F 67% 30.09 in 10.0 mi SE 15.0 mph 24.2 mph N/A   Overcast
3:55 PM 57.2 °F 46.4 °F 67% 30.08 in 10.0 mi SE 18.4 mph 23.0 mph N/A   Overcast
4:15 PM 55.4 °F 46.4 °F 72% 30.08 in 10.0 mi SE 16.1 mph 23.0 mph N/A   Overcast
4:35 PM 55.4 °F 46.4 °F 72% 30.07 in 10.0 mi ESE 20.7 mph 24.2 mph N/A   Overcast
4:55 PM 55.4 °F 48.2 °F 77% 30.07 in 10.0 mi SE 15.0 mph 24.2 mph N/A   Overcast
5:15 PM 55.4 °F 48.2 °F 77% 30.06 in 10.0 mi ESE 19.6 mph 25.3 mph N/A   Overcast
5:35 PM 55.4 °F 48.2 °F 77% 30.06 in 10.0 mi ESE 18.4 mph 27.6 mph N/A   Overcast
5:55 PM 55.4 °F 48.2 °F 77% 30.06 in 10.0 mi ESE 18.4 mph - N/A   Overcast
6:15 PM 55.4 °F 48.2 °F 77% 30.05 in 10.0 mi ESE 20.7 mph 24.2 mph N/A   Overcast
6:35 PM 55.4 °F 48.2 °F 77% 30.05 in 10.0 mi ESE 18.4 mph 26.5 mph N/A   Overcast
6:55 PM 55.4 °F 48.2 °F 77% 30.05 in 10.0 mi SE 15.0 mph 23.0 mph N/A   Overcast
7:15 PM 55.4 °F 48.2 °F 77% 30.04 in 10.0 mi SE 16.1 mph 23.0 mph N/A   Overcast
7:35 PM 55.4 °F 48.2 °F 77% 30.03 in 10.0 mi SE 19.6 mph 25.3 mph N/A   Overcast
7:55 PM 55.4 °F 50.0 °F 82% 30.03 in 10.0 mi SE 16.1 mph 24.2 mph N/A   Overcast
8:15 PM 55.4 °F 50.0 °F 82% 30.02 in 10.0 mi SE 17.3 mph 21.9 mph N/A   Overcast
8:35 PM 55.4 °F 50.0 °F 82% 30.02 in 10.0 mi SE 17.3 mph 23.0 mph N/A   Scattered Clouds
8:55 PM 57.2 °F 50.0 °F 77% 30.03 in 10.0 mi SE 15.0 mph 18.4 mph N/A   Mostly Cloudy
9:15 PM 57.2 °F 51.8 °F 82% 30.02 in 10.0 mi SE 13.8 mph 20.7 mph N/A   Mostly Cloudy
9:35 PM 57.2 °F 51.8 °F 82% 30.02 in 10.0 mi SE 13.8 mph - N/A   Mostly Cloudy
9:55 PM 57.2 °F 51.8 °F 82% 30.02 in 10.0 mi South 8.1 mph 18.4 mph N/A   Overcast
10:15 PM 57.2 °F 51.8 °F 82% 30.02 in 10.0 mi SE 12.7 mph 16.1 mph N/A   Overcast
10:35 PM 57.2 °F 51.8 °F 82% 30.01 in 10.0 mi SE 13.8 mph 21.9 mph N/A   Overcast
10:55 PM 57.2 °F 51.8 °F 82% 30.00 in 10.0 mi SE 13.8 mph 17.3 mph N/A   Overcast
11:15 PM 57.2 °F 51.8 °F 82% 30.00 in 10.0 mi SE 13.8 mph 20.7 mph N/A   Overcast
11:35 PM 57.2 °F 51.8 °F 82% 30.00 in 10.0 mi SSE 11.5 mph 17.3 mph N/A   Overcast
11:55 PM 57.2 °F 53.6 °F 88% 29.99 in 10.0 mi SE 11.5 mph - N/A   Overcast